COSMOS 921 DEB

Satellite information

Favourite Embed

Satellite Type and Status

DEBRISIN ORBIT

Key statistics

Satellite COSMOS 921 DEB at a glance.

Uptime

17705

Days in orbit

Revolutions

≈ 15.6

Per day

Orbit

LEO

Low Earth Orbit

Inclination

75.8

Latest

Satellite identification and parameters

Extended collection of information and parameters for COSMOS 921 DEB.

Object identification

Identified? True

Debris? True

Object name: COSMOS 921 DEB

International designator: 1977-055C

Object number (NORAD): 39690

Object ID (CCSDS): 39690

Country: COMMONWEALTH OF INDEPENDENT STATES (CIS)

Current information (Y/N): Y

RCS size: SMALL

Orbital parameters

Period: 92.603 minutes

Inclination: 75.8134 deg

SMA: 6780.227 km

Apoapsis: 413.52 km

Periapsis: 390.664 km

RAAN: 334.4304 deg

Eccentricy: 0.00168554

Argument of periapsis: 243.1723 deg

Mean anomaly: 116.778 deg

Mean motion: 15.55021571 rev/day

Mean motion (dot): 0.00085652 rev/day2

B* drag term: 0.0012557632 1/REarth

Two-line elements (TLE)

Creation date: Dec. 13, 2025, 5:47 p.m.

Reference frame: TEME

Reference center: EARTH

Epoch: Dec. 13, 2025, 6:09 a.m. UTC

TLE line 0: 0 COSMOS 921 DEB

TLE line 1: 1 39690U 77055C 25347.25653477 .00085652 00000-0 12558-2 0 9990

TLE line 2: 2 39690 75.8134 334.4304 0016855 243.1723 116.7780 15.55021571641288

Live tracking on map

Real-time ground track for satellite COSMOS 921 DEB.

In-orbit conjunctions

A list of the most updated potential collisions computed for object COSMOS 921 DEB.

Target Orbit TCA Probability of collision Miss distance Type
FENGYUN 1C DEB SSO 2025-05-26 00:04:21 0.0001403669 286.0 (m) DEBRIS

Associated space launch

Dynamic simulator of the Tselina-D ELINT satellite

COSMOS 921 DEB was lifted into orbit during the mission ‘Tsiklon-3 | EPN 03.0380 1’, on board a Tsiklon-3 space rocket.

The launch took place on June 24, 1977, 10:30 a.m. from 32/2.

For more information about the launch, click the button.

Launch to space Tsiklon-3 | EPN 03.0380 1
Tsiklon-3 | EPN 03.0380 1

Agency: N/A

Status: Launch Successful

Launch date: June 24, 1977, 10:30 a.m. UTC

Rocket: Tsiklon-3

Launch pad: 32/2

Location: Plesetsk Cosmodrome, Russian Federation

...

Latest news about this satellite

There are no fresh news available about this satellite. Check back as we update our databases every day.


Newsletter sign-up

Weekly statistics, charts and insights to help you stay on top of the space industry.